User: anonymous
Location: Unspecified
(0.0000°N, 0.0000°E)
Time: 22:59:29
(UTC+00:00)
Language:

PW SAT - Orbit

View from above orbital plane
View from above orbital plane
View from above satellite
View from above satellite

Ground track
Ground track

The orbit data is extracted from the following two-line orbital elements,

1 38083U 12006G   14238.11996499  .00127143  76965-5  84811-3 0  5455
2 38083 069.4428 141.0331 0242713 239.1524 118.5578 15.44748729134683
Epoch (UTC): 26 August 2014 02:52:44
Eccentricity: 0.0242713
inclination: 69.4428°
perigee height: 267 km
apogee height: 597 km
right ascension of ascending node: 141.0331°
argument of perigee: 239.1524°
revolutions per day: 15.44748729
mean anomaly at epoch: 118.5578°
orbit number at epoch: 13468

The dashed part of the orbit path shows where the satellite is in the earth's shadow,  

DLR